******** Week 147 almanac for PRN-1 ******** ID: 1 Health: 0 Eccentricity: 0.01132392883 Time of Applicability(s): 147456 Orbital Inclination(rad): 0.986489862 Rate of Right Ascen(r/s): -8.148910863e-09 SQRT(A) (m 1/2): 5153.621094 Right Ascen at Week(rad): -1.660009894 Argument of Perigee(rad): 0.882870359 Mean Anom(rad): 3.07238076 Af0(s): 0.0003504585571 Af1(s/s): -1.091394e-11 week: 147 ******** Week 147 almanac for PRN-2 ******** ID: 2 Health: 0 Eccentricity: 0.02068138123 Time of Applicability(s): 147456 Orbital Inclination(rad): 0.9648463519 Rate of Right Ascen(r/s): -8.251772291e-09 SQRT(A) (m 1/2): 5153.632324 Right Ascen at Week(rad): -1.749014485 Argument of Perigee(rad): -1.449220111 Mean Anom(rad): -3.056202056 Af0(s): -0.0005132522095 Af1(s/s): 0 week: 147 ******** Week 147 almanac for PRN-3 ******** ID: 3 Health: 0 Eccentricity: 0.003858566284 Time of Applicability(s): 147456 Orbital Inclination(rad): 0.972582169 Rate of Right Ascen(r/s): -7.863184676e-09 SQRT(A) (m 1/2): 5153.647949 Right Ascen at Week(rad): -0.6244110744 Argument of Perigee(rad): 0.9687320874 Mean Anom(rad): 1.910122166 Af0(s): -7.988947754e-05 Af1(s/s): -1.455192e-11 week: 147 ******** Week 147 almanac for PRN-4 ******** ID: 4 Health: 0 Eccentricity: 0.001685619354 Time of Applicability(s): 147456 Orbital Inclination(rad): 0.9613649345 Rate of Right Ascen(r/s): -7.611745631e-09 SQRT(A) (m 1/2): 5153.611328 Right Ascen at Week(rad): 0.4563873726 Argument of Perigee(rad): -3.082269993 Mean Anom(rad): -1.408810428 Af0(s): -0.0001514885376 Af1(s/s): 3.637979e-12 week: 147 ******** Week 147 almanac for PRN-5 ******** ID: 5 Health: 0 Eccentricity: 0.005867481232 Time of Applicability(s): 147456 Orbital Inclination(rad): 0.9595493245 Rate of Right Ascen(r/s): -8.023191341e-09 SQRT(A) (m 1/2): 5153.613281 Right Ascen at Week(rad): -0.6646087863 Argument of Perigee(rad): 1.01212734 Mean Anom(rad): -0.5607886969 Af0(s): -5.50182251e-05 Af1(s/s): 0 week: 147 ******** Week 147 almanac for PRN-6 ******** ID: 6 Health: 0 Eccentricity: 0.002659320831 Time of Applicability(s): 147456 Orbital Inclination(rad): 0.9858726745 Rate of Right Ascen(r/s): -8.137481816e-09 SQRT(A) (m 1/2): 5153.611816 Right Ascen at Week(rad): -1.668282754 Argument of Perigee(rad): -0.9781382059 Mean Anom(rad): -2.862100307 Af0(s): 0.000147720166 Af1(s/s): 1.091394e-11 week: 147 ******** Week 147 almanac for PRN-7 ******** ID: 7 Health: 0 Eccentricity: 0.01547813416 Time of Applicability(s): 147456 Orbital Inclination(rad): 0.950519211 Rate of Right Ascen(r/s): -8.114623721e-09 SQRT(A) (m 1/2): 5153.627441 Right Ascen at Week(rad): 1.475565931 Argument of Perigee(rad): -2.293731213 Mean Anom(rad): 2.407561501 Af0(s): 0.0002426831299 Af1(s/s): 3.637979e-12 week: 147 ******** Week 147 almanac for PRN-8 ******** ID: 8 Health: 0 Eccentricity: 0.007229328155 Time of Applicability(s): 147456 Orbital Inclination(rad): 0.9651879023 Rate of Right Ascen(r/s): -7.714607058e-09 SQRT(A) (m 1/2): 5153.67334 Right Ascen at Week(rad): -2.739621528 Argument of Perigee(rad): 0.09224669871 Mean Anom(rad): -0.9284347566 Af0(s): -4.295943603e-05 Af1(s/s): 0 week: 147 ******** Week 147 almanac for PRN-9 ******** ID: 9 Health: 0 Eccentricity: 0.002294540405 Time of Applicability(s): 147456 Orbital Inclination(rad): 0.9543841235 Rate of Right Ascen(r/s): -7.703178011e-09 SQRT(A) (m 1/2): 5153.583008 Right Ascen at Week(rad): 0.4035665268 Argument of Perigee(rad): 1.869958159 Mean Anom(rad): -0.5862285849 Af0(s): -0.00028112052 Af1(s/s): 0 week: 147 ******** Week 147 almanac for PRN-10 ******** ID: 10 Health: 0 Eccentricity: 0.00749540329 Time of Applicability(s): 147456 Orbital Inclination(rad): 0.9724083978 Rate of Right Ascen(r/s): -7.840326581e-09 SQRT(A) (m 1/2): 5153.638184 Right Ascen at Week(rad): -0.6272037734 Argument of Perigee(rad): -2.52426201 Mean Anom(rad): 1.051671163 Af0(s): -0.0002434368042 Af1(s/s): -1.091394e-11 week: 147 ******** Week 147 almanac for PRN-11 ******** ID: 11 Health: 255 Eccentricity: 0.0002889633179 Time of Applicability(s): 147456 Orbital Inclination(rad): 0.9615986269 Rate of Right Ascen(r/s): -8.388920861e-09 SQRT(A) (m 1/2): 5153.711426 Right Ascen at Week(rad): -1.615870121 Argument of Perigee(rad): 2.84220537 Mean Anom(rad): -1.052807417 Af0(s): -7.838212891e-05 Af1(s/s): -4.001777e-11 week: 147 ******** Week 147 almanac for PRN-12 ******** ID: 12 Health: 0 Eccentricity: 0.008635044098 Time of Applicability(s): 147456 Orbital Inclination(rad): 0.9705987798 Rate of Right Ascen(r/s): -7.634603726e-09 SQRT(A) (m 1/2): 5153.561035 Right Ascen at Week(rad): 2.588363757 Argument of Perigee(rad): 1.23992873 Mean Anom(rad): 1.750816613 Af0(s): -0.0001296319824 Af1(s/s): -7.275958e-12 week: 147 ******** Week 147 almanac for PRN-13 ******** ID: 13 Health: 0 Eccentricity: 0.005794048309 Time of Applicability(s): 147456 Orbital Inclination(rad): 0.9687472171 Rate of Right Ascen(r/s): -7.554600394e-09 SQRT(A) (m 1/2): 5153.628906 Right Ascen at Week(rad): 0.5561298295 Argument of Perigee(rad): 0.9656588827 Mean Anom(rad): -1.52203364 Af0(s): 0.0002012310425 Af1(s/s): 7.275958e-12 week: 147 ******** Week 147 almanac for PRN-14 ******** ID: 14 Health: 0 Eccentricity: 0.001368999481 Time of Applicability(s): 147456 Orbital Inclination(rad): 0.9539766599 Rate of Right Ascen(r/s): -7.760323248e-09 SQRT(A) (m 1/2): 5153.59375 Right Ascen at Week(rad): 2.557316001 Argument of Perigee(rad): 3.033138416 Mean Anom(rad): 1.798145688 Af0(s): -6.180129394e-05 Af1(s/s): -3.637979e-12 week: 147 ******** Week 147 almanac for PRN-15 ******** ID: 15 Health: 0 Eccentricity: 0.01391649246 Time of Applicability(s): 147456 Orbital Inclination(rad): 0.9302838472 Rate of Right Ascen(r/s): -7.874613723e-09 SQRT(A) (m 1/2): 5153.682129 Right Ascen at Week(rad): 0.297941688 Argument of Perigee(rad): 1.073379463 Mean Anom(rad): -1.933613494 Af0(s): -6.933803711e-05 Af1(s/s): 3.637979e-12 week: 147 ******** Week 147 almanac for PRN-16 ******** ID: 16 Health: 0 Eccentricity: 0.01271867752 Time of Applicability(s): 147456 Orbital Inclination(rad): 0.9705628271 Rate of Right Ascen(r/s): -7.588887536e-09 SQRT(A) (m 1/2): 5153.54834 Right Ascen at Week(rad): 2.606982748 Argument of Perigee(rad): 0.7015786222 Mean Anom(rad): -0.10440844 Af0(s): -0.0003662857178 Af1(s/s): -3.637979e-12 week: 147 ******** Week 147 almanac for PRN-17 ******** ID: 17 Health: 0 Eccentricity: 0.01365947723 Time of Applicability(s): 147456 Orbital Inclination(rad): 0.9802580651 Rate of Right Ascen(r/s): -7.623174678e-09 SQRT(A) (m 1/2): 5153.712402 Right Ascen at Week(rad): -2.657979745 Argument of Perigee(rad): -1.501897146 Mean Anom(rad): -1.023787617 Af0(s): 0.0004499435669 Af1(s/s): 3.637979e-12 week: 147 ******** Week 147 almanac for PRN-18 ******** ID: 18 Health: 0 Eccentricity: 0.002095222473 Time of Applicability(s): 147456 Orbital Inclination(rad): 0.9702811979 Rate of Right Ascen(r/s): -8.297488481e-09 SQRT(A) (m 1/2): 5153.571777 Right Ascen at Week(rad): -1.651966981 Argument of Perigee(rad): 3.105686794 Mean Anom(rad): -3.013180187 Af0(s): 0.0001974626709 Af1(s/s): -7.275958e-12 week: 147 ******** Week 147 almanac for PRN-19 ******** ID: 19 Health: 0 Eccentricity: 0.008952140808 Time of Applicability(s): 147456 Orbital Inclination(rad): 0.9789697609 Rate of Right Ascen(r/s): -7.657461821e-09 SQRT(A) (m 1/2): 5153.643555 Right Ascen at Week(rad): -2.613097699 Argument of Perigee(rad): 2.001944173 Mean Anom(rad): 1.383015507 Af0(s): 8.893356934e-05 Af1(s/s): 3.637979e-12 week: 147 ******** Week 147 almanac for PRN-20 ******** ID: 20 Health: 0 Eccentricity: 0.00523853302 Time of Applicability(s): 147456 Orbital Inclination(rad): 0.9416688609 Rate of Right Ascen(r/s): -8.251772291e-09 SQRT(A) (m 1/2): 5153.687012 Right Ascen at Week(rad): -0.7783581806 Argument of Perigee(rad): 3.120504539 Mean Anom(rad): -2.174796769 Af0(s): 0.0004084914795 Af1(s/s): 0 week: 147 ******** Week 147 almanac for PRN-21 ******** ID: 21 Health: 0 Eccentricity: 0.02456617355 Time of Applicability(s): 147456 Orbital Inclination(rad): 0.9590879318 Rate of Right Ascen(r/s): -8.274630386e-09 SQRT(A) (m 1/2): 5153.535156 Right Ascen at Week(rad): -1.750551462 Argument of Perigee(rad): -1.015105795 Mean Anom(rad): -0.849596533 Af0(s): 0.0001243562622 Af1(s/s): 0 week: 147 ******** Week 147 almanac for PRN-22 ******** ID: 22 Health: 0 Eccentricity: 0.01281404495 Time of Applicability(s): 147456 Orbital Inclination(rad): 0.9614847768 Rate of Right Ascen(r/s): -7.611745631e-09 SQRT(A) (m 1/2): 5153.60498 Right Ascen at Week(rad): 0.504681552 Argument of Perigee(rad): -1.875891849 Mean Anom(rad): -1.159020981 Af0(s): 0.0001635473267 Af1(s/s): 7.275958e-12 week: 147 ******** Week 147 almanac for PRN-23 ******** ID: 23 Health: 0 Eccentricity: 0.001980781555 Time of Applicability(s): 147456 Orbital Inclination(rad): 0.9674349444 Rate of Right Ascen(r/s): -7.908900866e-09 SQRT(A) (m 1/2): 5153.657715 Right Ascen at Week(rad): -0.6519807839 Argument of Perigee(rad): 2.947006668 Mean Anom(rad): 2.377727147 Af0(s): 4.522045898e-06 Af1(s/s): -3.637979e-12 week: 147 ******** Week 147 almanac for PRN-24 ******** ID: 24 Health: 0 Eccentricity: 0.01232051849 Time of Applicability(s): 147456 Orbital Inclination(rad): 0.9340349096 Rate of Right Ascen(r/s): -8.286059433e-09 SQRT(A) (m 1/2): 5153.624023 Right Ascen at Week(rad): 1.393026829 Argument of Perigee(rad): 0.8053526472 Mean Anom(rad): -2.91016716 Af0(s): 0.0002185655518 Af1(s/s): 0 week: 147 ******** Week 147 almanac for PRN-25 ******** ID: 25 Health: 0 Eccentricity: 0.01044750214 Time of Applicability(s): 147456 Orbital Inclination(rad): 0.9579614147 Rate of Right Ascen(r/s): -7.783181343e-09 SQRT(A) (m 1/2): 5153.663574 Right Ascen at Week(rad): 2.511843732 Argument of Perigee(rad): 0.9748713811 Mean Anom(rad): 1.506887452 Af0(s): 0.0002200729004 Af1(s/s): 7.275958e-12 week: 147 ******** Week 147 almanac for PRN-26 ******** ID: 26 Health: 0 Eccentricity: 0.006847858429 Time of Applicability(s): 147456 Orbital Inclination(rad): 0.9387686785 Rate of Right Ascen(r/s): -7.966046103e-09 SQRT(A) (m 1/2): 5153.633301 Right Ascen at Week(rad): 2.465136713 Argument of Perigee(rad): 0.3590357686 Mean Anom(rad): 0.8561286846 Af0(s): 0.0001416907715 Af1(s/s): 3.637979e-12 week: 147 ******** Week 147 almanac for PRN-27 ******** ID: 27 Health: 0 Eccentricity: 0.01013660431 Time of Applicability(s): 147456 Orbital Inclination(rad): 0.9738764653 Rate of Right Ascen(r/s): -7.657461821e-09 SQRT(A) (m 1/2): 5153.611328 Right Ascen at Week(rad): -2.720324679 Argument of Perigee(rad): 0.6331824036 Mean Anom(rad): -0.9850246412 Af0(s): 7.762845459e-05 Af1(s/s): 1.818989e-11 week: 147 ******** Week 147 almanac for PRN-29 ******** ID: 29 Health: 0 Eccentricity: 0.001796245575 Time of Applicability(s): 147456 Orbital Inclination(rad): 0.9822534385 Rate of Right Ascen(r/s): -7.611745631e-09 SQRT(A) (m 1/2): 5153.720703 Right Ascen at Week(rad): -2.6450042 Argument of Perigee(rad): 2.268297692 Mean Anom(rad): -0.8654370568 Af0(s): -0.0003745761353 Af1(s/s): -3.637979e-12 week: 147 ******** Week 147 almanac for PRN-30 ******** ID: 30 Health: 0 Eccentricity: 0.005458831787 Time of Applicability(s): 147456 Orbital Inclination(rad): 0.9356947248 Rate of Right Ascen(r/s): -8.274630386e-09 SQRT(A) (m 1/2): 5153.511719 Right Ascen at Week(rad): 1.488933585 Argument of Perigee(rad): -2.750260524 Mean Anom(rad): 2.435235323 Af0(s): -0.0004032157593 Af1(s/s): -3.637979e-12 week: 147 ******** Week 147 almanac for PRN-31 ******** ID: 31 Health: 0 Eccentricity: 0.01046466827 Time of Applicability(s): 147456 Orbital Inclination(rad): 0.9547616266 Rate of Right Ascen(r/s): -8.068907531e-09 SQRT(A) (m 1/2): 5153.612793 Right Ascen at Week(rad): 1.493607807 Argument of Perigee(rad): 0.372430387 Mean Anom(rad): 1.954542444 Af0(s): -0.0001281246338 Af1(s/s): 0 week: 147 ******** Week 147 almanac for PRN-32 ******** ID: 32 Health: 0 Eccentricity: 0.005506515503 Time of Applicability(s): 147456 Orbital Inclination(rad): 0.9582430439 Rate of Right Ascen(r/s): -7.634603726e-09 SQRT(A) (m 1/2): 5153.723633 Right Ascen at Week(rad): 0.4147017443 Argument of Perigee(rad): -2.36549425 Mean Anom(rad): -0.3212892052 Af0(s): -4.748148193e-05 Af1(s/s): -7.275958e-12 week: 147